Grand Canyon, AZ

11:43 AM MST on November 23, 2017 (GMT -0700)
Grand Canyon National Park

Weather History for KGCN - April, 2013

Change the Weather History Date:

Monday, April 22, 2013

  Actual Average Record
Temperature  
Mean Temperature 50 °F -  
Max Temperature 73 °F 59 °F 79 °F (2012)
Min Temperature 26 °F 25 °F 17 °F (2008)
Degree Days  
Heating Degree Days 16    
Moisture  
Dew Point 13 °F    
Average Humidity 24    
Maximum Humidity 51    
Minimum Humidity 10    
Precipitation  
Precipitation 0.00 in - - ()
Sea Level Pressure  
Sea Level Pressure 29.87 in    
Wind  
Wind Speed 6 mph (WSW)    
Max Wind Speed 21 mph    
Max Gust Speed 36 mph    
Visibility 10 miles    
Events      
Averages and records for this station are not official NWS values.
T = Trace of Precipitation, MM = Missing Value Source: NWS Daily Summary

Daily Weather History Graph

Daily Weather History Graph

Search for Another Location

Airport or City:

Trip Planner

Search our weather history database for the weather conditions in past years. The results will help you decide how hot, cold, wet, or windy it might be!

Date:

Astronomy

Apr. 22, 2013 Rise Set
Actual Time 5:46 AM MST 7:08 PM MST
Civil Twilight 5:19 AM MST 7:35 PM MST
Nautical Twilight 4:47 AM MST 8:07 PM MST
Astronomical Twilight 4:13 AM MST 8:41 PM MST
Moon 4:06 PM MST (4/22) 3:36 AM MST (4/22)
Length of Visible Light 14h 15m
Length of Day
13h 22m
Waxing Gibbous, 88% of the Moon is Illuminated
Apr 22
Waxing Gibbous
Apr 25
Full
May 2
Last Quarter
May 9
New
May 17
First Quarter

Hourly Weather History & Observations

Time (MST) Temp. Dew Point Humidity Pressure Visibility Wind Dir Wind Speed Gust Speed Precip Events Conditions
12:54 AM 30.0 °F 10.0 °F 43% 30.00 in 10.0 mi Calm Calm - N/A   Clear
1:54 AM 28.0 °F 9.0 °F 45% 29.98 in 10.0 mi Calm Calm - N/A   Clear
2:54 AM 27.0 °F 10.0 °F 49% 29.97 in 10.0 mi Calm Calm - N/A   Clear
3:54 AM 26.1 °F 9.0 °F 49% 29.97 in 10.0 mi Calm Calm - N/A   Clear
4:54 AM 26.1 °F 10.0 °F 51% 29.96 in 10.0 mi Calm Calm - N/A   Clear
5:54 AM 26.1 °F 10.0 °F 51% 29.99 in 10.0 mi Calm Calm - N/A   Clear
6:54 AM 35.1 °F 12.9 °F 40% 29.98 in 10.0 mi Calm Calm - N/A   Clear
7:54 AM 55.0 °F 15.1 °F 21% 29.92 in 10.0 mi SSW 10.4 mph - N/A   Clear
8:54 AM 60.1 °F 17.1 °F 19% 29.92 in 10.0 mi SSW 11.5 mph - N/A   Clear
9:54 AM 64.9 °F 18.0 °F 16% 29.89 in 10.0 mi WSW 12.7 mph 20.7 mph N/A   Clear
10:54 AM 69.1 °F 17.1 °F 14% 29.87 in 10.0 mi West 17.3 mph 29.9 mph N/A   Clear
11:54 AM 71.1 °F 15.1 °F 12% 29.89 in 10.0 mi SW 17.3 mph 32.2 mph N/A   Clear
12:54 PM 73.0 °F 15.1 °F 11% 29.86 in 10.0 mi WSW 18.4 mph 35.7 mph N/A   Clear
1:54 PM 73.0 °F 12.9 °F 10% 29.85 in 10.0 mi SW 18.4 mph 32.2 mph N/A   Clear
2:54 PM 72.0 °F 12.9 °F 10% 29.83 in 10.0 mi West 20.7 mph 32.2 mph N/A   Clear
3:54 PM 73.0 °F 12.9 °F 10% 29.80 in 10.0 mi WSW 12.7 mph 29.9 mph N/A   Clear
4:54 PM 71.1 °F 10.9 °F 10% 29.81 in 10.0 mi West 13.8 mph 26.5 mph N/A   Clear
5:54 PM 68.0 °F 10.0 °F 11% 29.82 in 10.0 mi WSW 16.1 mph 27.6 mph N/A   Clear
6:54 PM 64.0 °F 10.9 °F 13% 29.80 in 10.0 mi WSW 10.4 mph 16.1 mph N/A   Clear
7:54 PM 60.1 °F 12.0 °F 15% 29.75 in 10.0 mi WSW 10.4 mph 17.3 mph N/A   Clear
8:54 PM 57.9 °F 12.0 °F 16% 29.75 in 10.0 mi WSW 10.4 mph 18.4 mph N/A   Clear
9:54 PM 54.0 °F 12.9 °F 20% 29.74 in 10.0 mi SW 11.5 mph - N/A   Clear
10:54 PM 52.0 °F 14.0 °F 22% 29.72 in 10.0 mi WSW 6.9 mph - N/A   Clear
11:54 PM 50.0 °F 12.9 °F 23% 29.72 in 10.0 mi SW 8.1 mph - N/A   Clear